This is the latest recevied weather packets stored in our database for station/object KI4MRC. If no packets are shown the sender has not sent any weather packets the latest 1 day(s).
| Time | Temp. | Humidity | Pressure | Rain* | Wind** | Luminosity | Snow |
|---|---|---|---|---|---|---|---|
| 1778038070 | 23.89° C | 88% | 1016.2 hPa | 0 mm | 0.89 m/s, 75° | 0 W/m² | - |
| 1778037767 | 23.89° C | 87% | 1016.2 hPa | 0 mm | 0.89 m/s, 49° | 0 W/m² | - |
| 1778037463 | 23.89° C | 87% | 1016.2 hPa | 0 mm | 0.89 m/s, 74° | 0 W/m² | - |
| 1778037161 | 23.89° C | 86% | 1016.3 hPa | 0 mm | 0.89 m/s, 76° | 0 W/m² | - |
| 1778036859 | 23.89° C | 86% | 1016.1 hPa | 0 mm | 1.34 m/s, 89° | 0 W/m² | - |
| 1778036556 | 23.89° C | 86% | 1016 hPa | 0 mm | 0.89 m/s, 119° | 0 W/m² | - |
| 1778036253 | 23.89° C | 86% | 1016 hPa | 0 mm | 0.89 m/s, 83° | 0 W/m² | - |
| 1778035950 | 23.89° C | 86% | 1016 hPa | 0 mm | 1.34 m/s, 73° | 0 W/m² | - |
| 1778035646 | 23.89° C | 86% | 1016 hPa | 0 mm | 0.89 m/s, 78° | 0 W/m² | - |
| 1778035343 | 23.89° C | 85% | 1016.1 hPa | 0 mm | 0.89 m/s, 80° | 0 W/m² | - |
| 1778035039 | 23.89° C | 86% | 1015.9 hPa | 0 mm | 0.89 m/s, 87° | 0 W/m² | - |
| 1778034736 | 24.44° C | 85% | 1015.9 hPa | 0 mm | 0.89 m/s, 74° | 0 W/m² | - |
| 1778034433 | 24.44° C | 84% | 1015.9 hPa | 0 mm | 0.89 m/s, 82° | 0 W/m² | - |
| 1778034131 | 24.44° C | 84% | 1015.8 hPa | 0 mm | 0.89 m/s, 81° | 0 W/m² | - |
| 1778033829 | 24.44° C | 83% | 1015.6 hPa | 0 mm | 0.89 m/s, 91° | 0 W/m² | - |
| 1778033526 | 24.44° C | 83% | 1015.5 hPa | 0 mm | 1.34 m/s, 106° | 0 W/m² | - |
| 1778033222 | 24.44° C | 83% | 1015.5 hPa | 0 mm | 1.34 m/s, 94° | 0 W/m² | - |
| 1778032920 | 24.44° C | 83% | 1015.6 hPa | 0 mm | 0.89 m/s, 86° | 0 W/m² | - |
| 1778032617 | 24.44° C | 83% | 1015.4 hPa | 0 mm | 1.34 m/s, 89° | 0 W/m² | - |
| 1778032315 | 24.44° C | 83% | 1015.7 hPa | 0 mm | 1.34 m/s, 51° | 0 W/m² | - |
| 1778032012 | 24.44° C | 84% | 1015.4 hPa | 0 mm | 0.89 m/s, 50° | 0 W/m² | - |
| 1778031708 | 24.44° C | 83% | 1015.2 hPa | 0 mm | 0.89 m/s, 124° | 0 W/m² | - |
| 1778031406 | 24.44° C | 83% | 1015.1 hPa | 0 mm | 0.89 m/s, 82° | 0 W/m² | - |
| 1778031103 | 24.44° C | 83% | 1015.2 hPa | 0 mm | 1.34 m/s, 115° | 0 W/m² | - |
| 1778030799 | 24.44° C | 82% | 1015 hPa | 0 mm | 1.79 m/s, 70° | 0 W/m² | - |
* Rain latest hour (hover to see other rain measurements)
** Current wind speed in m/s (hover to see current wind gust speed)